Weather History for Barter Island, AK

Change the Weather History Date:

Wednesday, October 2, 2013

  Actual Average Record
Temperature  
Mean Temperature 28 °F -  
Max Temperature 26 °F 29 °F 55 °F (2003)
Min Temperature 24 °F 21 °F 6 °F (1996)
Degree Days  
Heating Degree Days 37    
Moisture  
Dew Point 28 °F    
Average Humidity 98    
Maximum Humidity 100    
Minimum Humidity 92    
Precipitation  
Precipitation 0.00 in - - ()
Sea Level Pressure  
Sea Level Pressure 30.08 in    
Wind  
Wind Speed 19 mph (NNW)    
Max Wind Speed 25 mph    
Max Gust Speed 32 mph    
Visibility 2 miles    
Events Fog , Snow    
Averages and records for this station are not official NWS values.
T = Trace of Precipitation, MM = Missing Value Source: NWS Daily Summary

Daily Weather History Graph

Daily Weather History Graph

Search for Another Location

Airport:

Trip Planner

Search our weather history database for the weather conditions in past years. The results will help you decide how hot, cold, wet, or windy it might be!

Date:

Astronomy

Oct. 02, 2013 Rise Set
Actual Time 7:56 AM AKDT 6:48 PM AKDT
Civil Twilight 6:54 AM AKDT 7:49 PM AKDT
Nautical Twilight 5:41 AM AKDT 9:02 PM AKDT
Astronomical Twilight 4:16 AM AKDT 10:26 PM AKDT
Moon 4:42 AM AKDT (10/2) 6:07 PM AKDT (10/2)
Length of Visible Light 12h 54m
Length of Day
10h 52m
Waning Crescent, 5% of the Moon is Illuminated
Oct 2
Waning Crescent
Oct 4
New
Oct 11
First Quarter
Oct 18
Full
Oct 26
Last Quarter

Hourly Weather History & Observations

Time (AKDT) Temp. Windchill Dew Point Humidity Pressure Visibility Wind Dir Wind Speed Gust Speed Precip Events Conditions
12:01 AM 30.2 °F 16.8 °F 30.2 °F 100% 30.09 in 1.5 mi ENE 23.0 mph - N/A Snow Light Snow
12:29 AM 30.2 °F 16.5 °F 30.2 °F 100% 30.09 in 2.0 mi ENE 24.2 mph - N/A Snow Light Snow
1:01 AM 30.9 °F 18.4 °F 30.0 °F 96% 30.10 in 2.5 mi East 20.7 mph - N/A Snow Light Snow
1:12 AM 30.2 °F 17.4 °F 30.2 °F 100% 30.10 in 2.5 mi East 20.7 mph - 0.00 in Snow Light Snow
1:56 AM 30.2 °F 17.4 °F 30.2 °F 100% 30.10 in 1.8 mi East 20.7 mph - 0.00 in Snow Light Snow
2:01 AM 30.2 °F 17.4 °F 30.2 °F 100% 30.10 in 2.0 mi East 20.7 mph - 0.00 in Snow Light Snow
2:15 AM 30.2 °F 17.4 °F 30.2 °F 100% 30.10 in 1.8 mi East 20.7 mph - 0.00 in Snow Light Snow
2:25 AM 30.2 °F 17.4 °F 30.2 °F 100% 30.10 in 2.0 mi East 20.7 mph - 0.00 in Snow Light Snow
2:50 AM 30.2 °F 18.1 °F 30.2 °F 100% 30.09 in 3.0 mi ENE 18.4 mph - 0.00 in Snow Light Snow
2:59 AM 30.2 °F 18.1 °F 30.2 °F 100% 30.09 in 2.5 mi East 18.4 mph - 0.00 in Snow Light Snow
3:01 AM 30.9 °F 18.7 °F 30.0 °F 96% 30.09 in 2.5 mi East 19.6 mph - 0.00 in Snow Light Snow
3:20 AM 30.2 °F 18.1 °F 30.2 °F 100% 30.09 in 4.0 mi ENE 18.4 mph - 0.00 in Snow Light Snow
3:31 AM 30.2 °F 17.8 °F 30.2 °F 100% 30.09 in 3.0 mi ENE 19.6 mph - 0.00 in Snow Light Snow
4:01 AM 30.2 °F 18.1 °F 30.2 °F 100% 30.09 in 3.0 mi ENE 18.4 mph - 0.00 in Snow Light Snow
4:43 AM 30.2 °F 18.9 °F 30.2 °F 100% 30.09 in 2.5 mi ENE 16.1 mph - 0.00 in Snow Light Snow
5:01 AM 30.2 °F 19.3 °F 30.2 °F 100% 30.09 in 2.5 mi ENE 15.0 mph - 0.00 in Snow Light Snow
5:12 AM 30.2 °F 18.9 °F 30.2 °F 100% 30.09 in 2.5 mi ENE 16.1 mph - 0.00 in Snow Light Snow
5:31 AM 30.2 °F 18.9 °F 30.2 °F 100% 30.09 in 3.0 mi ENE 16.1 mph - 0.00 in Snow Light Snow
5:50 AM 30.2 °F 19.3 °F 30.2 °F 100% 30.09 in 7.0 mi ENE 15.0 mph - 0.00 in   Overcast
6:40 AM 30.2 °F 18.9 °F 30.2 °F 100% 30.08 in 8.0 mi ENE 16.1 mph - N/A Snow Light Snow
7:01 AM 30.2 °F 19.3 °F 30.2 °F 100% 30.08 in 9.0 mi ENE 15.0 mph - N/A Snow Light Snow
7:23 AM 32.0 °F 22.1 °F 30.2 °F 93% 30.08 in 8.0 mi East 13.8 mph - N/A Snow Light Snow
7:51 AM 32.0 °F 22.5 °F 30.2 °F 93% 30.08 in 7.0 mi East 12.7 mph - N/A   Overcast
8:01 AM 32.0 °F 22.5 °F 30.0 °F 92% 30.08 in 6.0 mi East 12.7 mph - N/A   Overcast
8:11 AM 32.0 °F 23.6 °F 30.2 °F 93% 30.08 in 6.0 mi East 10.4 mph - N/A   Overcast
8:54 AM 32.0 °F 24.2 °F 30.2 °F 93% 30.08 in 2.0 mi East 9.2 mph - N/A   Mist
9:01 AM 32.0 °F 24.2 °F 30.2 °F 93% 30.08 in 1.5 mi East 9.2 mph - N/A   Mist
9:13 AM 32.0 °F 26.4 °F 30.2 °F 93% 30.08 in 1.5 mi Variable 5.8 mph - N/A   Overcast
9:23 AM 30.2 °F 19.8 °F 30.2 °F 100% 30.08 in 0.8 mi West 13.8 mph - N/A   Overcast
9:48 AM 28.4 °F 15.4 °F 28.4 °F 100% 30.09 in 0.5 mi West 19.6 mph - N/A Fog Light Freezing Fog
10:01 AM 28.9 °F 16.1 °F 28.0 °F 96% 30.09 in 0.5 mi West 19.6 mph - N/A Fog Light Freezing Fog
10:12 AM 28.4 °F 15.4 °F 28.4 °F 100% 30.09 in 0.8 mi West 19.6 mph - N/A   Overcast
11:01 AM 28.0 °F 14.9 °F 27.0 °F 96% 30.09 in 0.8 mi West 19.6 mph - N/A   Overcast
11:27 AM 28.4 °F 15.1 °F 26.6 °F 93% 30.09 in 0.8 mi West 20.7 mph - N/A   Overcast
12:14 PM 26.6 °F 12.7 °F 26.6 °F 100% 30.09 in 0.8 mi West 20.7 mph - N/A   Mist
12:28 PM 26.6 °F 12.7 °F 26.6 °F 100% 30.09 in 0.8 mi West 20.7 mph - N/A   Overcast
12:35 PM 26.6 °F 12.7 °F 26.6 °F 100% 30.09 in 0.5 mi West 20.7 mph - N/A Fog Light Freezing Fog
12:54 PM 26.6 °F 13.1 °F 26.6 °F 100% 30.09 in 0.8 mi West 19.6 mph - N/A   Overcast
1:01 PM 27.0 °F 13.2 °F 26.1 °F 96% 30.09 in 0.8 mi West 20.7 mph - N/A   Overcast
2:01 PM 27.0 °F 13.5 °F 26.1 °F 96% 30.09 in 0.8 mi West 19.6 mph - N/A   Overcast
3:01 PM 27.0 °F 13.2 °F 26.1 °F 96% 30.08 in 0.8 mi West 20.7 mph - N/A   Mist
3:11 PM 26.6 °F 13.1 °F 26.6 °F 100% 30.08 in 0.5 mi West 19.6 mph - N/A Fog Light Freezing Fog
3:33 PM 26.6 °F 12.4 °F 26.6 °F 100% 30.08 in 0.5 mi West 21.9 mph - N/A Fog Light Freezing Fog
3:54 PM 26.6 °F 12.4 °F 26.6 °F 100% 30.08 in 0.5 mi West 21.9 mph - N/A Fog Light Freezing Fog
4:01 PM 27.0 °F 13.2 °F 26.1 °F 96% 30.08 in 0.5 mi West 20.7 mph - N/A Fog Light Freezing Fog
5:01 PM 27.0 °F 13.2 °F 26.1 °F 96% 30.08 in 0.5 mi West 20.7 mph - N/A Fog Light Freezing Fog
5:30 PM 26.6 °F - 26.6 °F 100% 30.08 in 0.8 mi North - - N/A   Overcast
6:01 PM 26.1 °F 10.7 °F 26.1 °F 100% 30.07 in 0.8 mi West 25.3 mph - N/A   Overcast
6:23 PM 26.6 °F 11.7 °F 26.6 °F 100% 30.08 in 0.5 mi West 24.2 mph 32.2 mph N/A Fog Light Freezing Fog
7:01 PM 26.1 °F 13.6 °F 26.1 °F 100% 30.07 in 0.5 mi West 16.1 mph - N/A Fog Light Freezing Fog
7:42 PM 26.6 °F 13.8 °F 24.8 °F 93% 30.07 in 1.0 mi West 17.3 mph - 0.00 in Snow Light Snow
8:01 PM 26.1 °F - 25.0 °F 96% 30.07 in 1.0 mi North - - 0.00 in Snow Light Snow
8:57 PM 26.6 °F 13.8 °F 24.8 °F 93% 30.07 in 0.8 mi West 17.3 mph - 0.00 in Snow Light Snow
9:01 PM 26.1 °F 13.1 °F 25.0 °F 96% 30.07 in 0.8 mi West 17.3 mph - 0.00 in Snow Light Snow
9:48 PM 24.8 °F 11.5 °F 24.8 °F 100% 30.07 in 1.2 mi West 17.3 mph - 0.00 in Snow Light Snow
10:01 PM 25.0 °F 12.2 °F 25.0 °F 100% 30.06 in 1.2 mi West 16.1 mph - 0.00 in Snow Light Snow
10:35 PM 26.6 °F 14.7 °F 24.8 °F 93% 30.06 in 1.0 mi West 15.0 mph - 0.00 in Snow Light Snow
11:01 PM 26.1 °F 14.5 °F 25.0 °F 96% 30.06 in 1.0 mi West 13.8 mph - 0.00 in Snow Light Snow
11:47 PM 26.6 °F 14.3 °F 24.8 °F 93% 30.06 in 0.8 mi West 16.1 mph - 0.00 in Snow Light Snow